IRIDIUM 151 (43074 NORAD) Tracking and Keplerian Element Data

This shows tracking and keplerian element data for the satellite.

Feedback or suggestion? Click here.




ElementValue
Catalog43074
NameIRIDIUM 151
Epoch Orbit37270
Epoch Day34.80137872
Epoch Year2025
RAAN170.363
Inclination86.4021
Eccentricity0.0001923
Argument of Perigee86.6297
Mean Anonmoly273.5119
Mean Motion14.34218118
Decay Rate6.11E-06
L11 43074U 17083E 25034.80137872 .00000611 00000+0 21127-3 0 9990
L22 43074 86.4021 170.3630 0001923 86.6297 273.5119 14.34218118372704



Live tracking and technical data element details for IRIDIUM 151 (NORAD 43074). IRIDIUM 151 can be tracked NOW for your location showing map with azimuth and elevation plus other details from your city location.







IsCatalogInMostPopularTable: catalog: 43074, numindb: 766
Update: records affected: 1



GetName: 43074 IRIDIUM 151

Hit Count: updated at: Wed, 30 Apr 2025 16:57:18 GMT